SCP
0 -0 -0 0 0 0 0 0 0 0 0 0 0 0 0 0 0 0 0 0 0 0 0 0 0 0 0 0 0 0 0 0 0 0 0 0 0 0 0 1 1 1 1 1
0 -0 -0 0 0 0 0 0 0 0 0 0 0 0 0 0 0 0 0 0 0 0 0 0 0 0 0 0 0 0 0 0 0 0 0 0 0 0 0 0 0 1 1 1
0 0 0 0 0 0 0 0 0 0 0 0 -0 0 0 0 0 0 0 0 0 0 0 0 0 0 0 0 0 0 0 0 0 0 0 0 0 0 0 0 0 0 0 0
0 0 0 0 0 0 0 0 0 0 0 0 0 0 0 0 0 0 0 0 0 0 0 0 0 0 0 0 0 0 0 0 0 0 0 0 0 0 0 0 0 0 0 0
0 0 0 0 0 0 0 0 0 0 0 0 0 0 0 0 0 0 0 0 0 0 0 0 0 0 0 0 0 0 0 0 0 0 0 0 0 0 0 0 0 0 0 0
0 0 0 0 0 0 0 0 0 0 0 0 0 0 0 0 0 0 0 0 0 0 0 0 0 0 0 0 0 0 0 0 0 0 0 0 0 0 0 0 0 0 0 0
0 0 0 0 0 0 0 0 0 0 0 0 0 0 0 0 0 0 0 0 0 0 0 0 0 0 0 0 -0 -0 0 0 0 0 0 0 0 0 0 0 0 0 0 0
0 0 0 0 0 0 0 0 0 0 0 0 0 0 0 0 0 0 0 0 0 0 0 0 0 0 0 0 0 0 0 0 0 0 0 0 0 0 0 0 0 0 0 0
0 0 0 0 0 0 0 0 0 0 0 0 0 0 0 0 0 0 0 0 0 0 0 0 0 0 0 0 0 0 0 0 0 0 0 0 0 0 0 0 0 0 0 0
0 0 0 0 0 0 0 0 0 0 0 0 0 0 0 0 0 0 0 0 0 0 0 0 0 0 0 0 0 0 0 0 0 0 0 0 0 0 0 0 0 0 0 0
0 0 0 0 0 0 0 0 0 0 0 0 0 0 0 0 0 0 0 0 0 0 0 0 0 0 0 0 0 0 0 0 0 0 0 0 0 0 0 0 0 0 0 0
0 0 0 0 0 0 0 0 0 0 0 0 0 0 0 0 0 0 0 0 0 0 0 0 0 0 0 0 0 0 0 0 0 0 0 0 0 0 0 0 0 0 0 0
0 0 0 0 0 0 0 0 0 0 0 0 0 0 0 0 0 0 0 0 0 0 0 0 0 0 0 0 0 0 0 0 0 0 0 0 0 0 0 0 0 0 0 0
0 0 0 0 0 0 0 0 0 0 0 0 0 0 0 0 0 0 0 0 0 0 0 0 0 0 0 0 0 0 0 0 0 0 0 0 0 0 0 0 0 0 0 0
0 0 0 0 0 0 0 0 0 0 0 0 0 0 0 0 0 0 0 0 0 0 0 0 0 0 0 0 0 0 0 0 0 0 0 0 0 0 0 0 0 0 0 0
0 0 0 0 0 0 0 0 0 0 0 0 0 0 0 0 0 0 0 0 0 0 0 0 0 0 0 0 0 0 0 0 0 0 0 0 0 0 0 0 0 0 0 0
0 0 0 0 0 0 0 0 0 0 0 0 0 0 0 0 0 0 0 0 0 0 0 0 0 0 0 0 -0 -0 -0 0 0 0 0 0 0 0 0 0 0 0 0 0
0 0 0 0 0 0 0 0 0 0 0 0 0 0 0 0 0 0 0 0 0 0 0 0 0 0 0 -0 -0 0 0 0 0 0 0 0 0 0 0 0 0 0 0 0
0 0 0 0 0 0 0 0 0 0 0 0 0 0 0 0 0 0 0 0 0 -0 0 -0 -0 -0 -0 -0 0 0 0 0 0 0 0 0 0 0 0 0 0 0 0 0
0 0 0 0 0 0 0 0 0 0 0 0 0 0 0 0 0 0 0 0 0 -0 -0 -0 -0 -0 -0 0 0 -0 0 0 0 0 0 0 0 0 0 0 0 0 0 0
0 0 0 0 0 0 0 0 0 0 0 0 0 0 0 0 0 0 0 0 -0 -0 -0 -0 -0 -0 -0 -0 -0 0 0 0 0 0 0 0 0 0 0 0 0 0 0 0
0 0 0 0 0 0 0 0 0 0 0 0 0 0 0 0 0 0 -0 -0 -0 -0 -0 -0 -0 -0 -0 -0 0 0 0 0 0 0 0 0 0 0 0 0 0 0 0 0
0 0 0 0 0 0 0 0 0 0 0 0 0 0 0 0 0 -0 -0 -0 -0 -0 -0 -0 -0 0 -0 0 0 0 0 0 0 0 0 0 0 0 0 0 0 0 0 0
0 0 0 0 0 0 0 0 0 0 0 0 0 0 0 0 0 0 0 -0 -0 -0 -0 -0 0 -0 -0 0 0 0 0 0 0 0 0 0 0 0 0 0 0 0 0 0
0 0 0 0 0 0 0 0 0 0 0 0 0 0 0 0 0 0 -0 -0 -0 -0 -0 -0 -0 -0 0 0 0 0 0 0 0 0 0 0 0 0 0 0 0 0 0 -0
0 0 0 0 0 0 0 0 0 0 0 0 0 0 0 0 -0 -0 -0 -0 -0 -0 -0 -0 0 -0 -0 0 0 0 0 0 0 0 0 0 0 0 0 0 0 0 0 -0
Wind_Speed_500mb
9 5 13 18 16 8 5 6 11 11 11 7 14 17 26 20 13 17 27 30 40 50 36 36 31 22 29 35 39 42 38 35 34 29 25 24 27 33 35 36 42 46 42 46
6 10 18 9 12 11 10 6 13 15 10 8 15 22 16 15 14 20 28 24 35 27 21 23 21 18 24 30 29 32 34 35 32 28 26 20 17 16 17 19 25 31 34 37
11 16 7 9 12 10 11 8 10 14 5 3 4 13 7 6 2 1 15 17 19 24 31 40 37 38 40 38 36 35 31 26 19 13 9 11 17 24 31 36 39 41 44 47
10 20 19 13 11 12 12 13 12 12 6 4 5 4 10 6 6 3 18 22 37 56 55 54 52 49 42 40 30 20 14 6 3 12 20 28 34 41 45 48 49 51 54 57
12 6 7 5 9 12 20 11 8 5 9 8 10 9 14 8 3 4 6 32 53 54 53 53 46 38 30 20 12 5 3 10 20 28 32 34 34 39 41 45 49 51 53 54
14 13 8 12 8 5 15 10 14 10 7 5 7 9 10 7 9 3 1 39 45 43 44 39 33 26 21 12 6 5 8 12 27 29 33 39 45 49 51 51 56 57 58 58
4 8 7 9 4 9 12 12 4 5 6 9 1 6 14 7 8 18 17 31 40 42 39 31 23 16 13 7 8 9 16 24 28 33 37 41 47 51 54 57 58 61 63 65
8 6 3 1 6 8 4 11 11 12 9 7 7 8 9 10 13 41 45 42 37 32 25 20 12 12 15 12 18 22 23 27 31 35 37 42 48 54 56 56 56 58 60 64
8 6 4 7 3 8 4 6 6 12 4 6 6 3 10 11 11 25 38 34 34 32 29 17 12 13 19 21 19 20 22 24 30 34 39 42 45 49 54 59 61 61 61 60
9 5 4 6 3 10 7 10 6 6 8 6 6 6 10 12 16 11 10 29 24 16 16 13 13 11 12 8 7 10 12 18 25 32 40 46 50 55 60 63 64 64 64 65
8 8 6 0 1 8 3 5 10 9 6 9 2 9 11 16 7 8 11 12 4 23 27 24 21 15 7 1 9 19 30 40 51 60 67 74 78 83 88 90 91 90 82 72
1 8 6 11 5 5 6 5 7 9 8 4 8 8 4 15 5 11 26 27 27 27 23 18 10 3 10 20 30 39 49 59 70 80 89 96 101 104 105 104 104 104 108 102
9 3 4 13 9 8 4 6 6 8 5 14 11 10 11 11 12 33 39 25 23 13 9 7 12 21 30 38 47 55 63 73 82 90 92 91 86 81 78 76 75 78 79 85
10 5 10 13 8 7 4 5 6 8 6 5 10 13 11 7 15 13 23 24 20 5 9 17 24 33 43 51 59 65 75 86 91 88 81 78 70 63 65 65 64 65 68 70
7 6 3 5 1 3 5 9 9 11 13 12 9 12 11 9 15 16 18 10 5 8 15 25 36 44 51 58 65 76 88 89 83 76 72 66 60 57 56 57 57 61 63 71
8 4 4 3 1 7 9 14 18 15 18 24 21 14 8 13 24 19 9 7 9 12 21 33 42 52 60 68 79 87 85 78 71 69 68 64 57 59 57 54 51 57 65 68
5 7 5 7 5 8 9 25 23 19 20 17 18 15 16 8 13 15 4 5 11 25 37 47 51 59 71 79 83 79 72 68 62 63 65 59 56 56 54 50 54 61 65 66
9 8 4 4 6 5 10 7 10 11 9 20 11 13 12 10 16 13 7 8 22 36 42 50 60 71 75 78 70 64 64 59 55 60 61 61 57 48 51 60 68 68 68 65
6 8 5 4 5 12 15 1 8 7 6 7 15 12 13 9 23 9 13 19 30 38 50 60 65 70 70 65 62 62 59 52 54 56 61 60 48 53 60 69 69 65 72 66
13 5 7 5 5 9 8 6 9 3 5 13 18 8 2 12 2 7 18 26 39 49 57 62 65 64 61 61 57 55 53 52 55 57 60 45 50 59 69 72 73 71 70 73
8 4 12 6 6 12 10 8 7 8 8 18 20 17 11 3 5 6 20 34 44 52 57 59 59 58 60 54 51 51 50 50 56 54 41 47 56 70 72 76 69 72 77 80
10 11 6 9 7 12 2 6 4 10 12 21 17 14 12 9 3 16 30 43 51 57 61 60 59 59 56 50 50 51 49 50 49 38 45 54 61 68 67 65 73 69 66 61
6 10 8 13 9 7 6 14 13 16 25 18 19 13 11 4 16 29 41 46 52 57 60 58 59 62 58 51 48 50 49 47 38 39 47 53 63 57 58 61 63 61 48 35
7 9 3 4 2 9 15 21 19 17 18 16 16 9 7 14 22 30 37 44 51 53 55 56 59 59 57 48 44 42 42 40 40 43 50 56 65 52 56 56 54 47 34 34
4 8 9 7 3 6 9 19 22 19 23 24 16 9 12 17 23 30 34 41 46 53 53 53 54 56 55 50 44 38 38 38 42 42 50 57 59 45 49 51 46 43 30 28
11 11 8 9 16 10 17 31 27 26 29 20 9 8 12 18 23 29 35 40 46 53 59 57 56 57 57 52 46 41 38 36 39 39 46 56 55 47 45 46 43 37 28 21
Wind_Direction_500mb
201 157 222 223 207 198 237 234 257 247 240 174 225 216 244 211 211 217 248 245 222 215 213 227 239 219 178 166 165 170 178 186 194 198 210 223 233 250 260 264 266 273 282 285
356 246 246 222 253 218 233 267 288 288 272 118 292 251 236 156 199 220 232 228 229 206 209 220 216 204 203 194 178 166 173 177 182 192 202 214 231 250 265 267 277 287 285 284
179 246 337 205 275 299 279 223 244 214 12 214 74 350 31 148 118 276 256 261 243 177 159 156 160 162 159 159 160 159 157 161 171 192 228 281 298 300 299 298 298 293 290 291
229 265 241 263 251 181 270 272 201 178 118 205 54 273 323 45 350 90 226 197 161 149 148 147 147 147 149 142 139 137 135 132 15 339 328 319 311 307 305 304 303 301 299 296
241 261 327 277 221 168 229 188 132 75 89 81 347 83 270 339 314 323 168 163 151 148 148 146 141 135 136 133 132 129 9 353 345 336 324 312 308 311 305 299 298 301 300 300
231 258 231 219 269 237 147 87 50 47 75 55 254 125 287 235 192 138 292 149 146 140 136 132 136 140 140 147 194 264 310 324 321 317 315 310 307 306 302 303 304 303 303 304
275 243 261 216 233 14 71 70 1 359 16 204 18 66 233 294 181 168 167 156 148 145 150 154 156 165 179 208 259 283 301 311 305 302 300 299 297 295 294 298 296 295 294 297
164 309 184 244 153 161 80 147 155 199 186 235 269 224 253 305 144 154 157 158 162 167 175 184 197 206 205 222 237 241 249 256 261 262 265 270 275 274 271 270 269 274 282 291
171 254 354 49 93 123 166 69 175 98 30 87 241 252 345 34 87 148 168 175 189 199 204 214 231 237 228 240 242 240 257 261 267 276 280 282 282 278 273 270 273 277 273 274
195 153 326 319 101 22 130 166 62 14 145 218 279 250 188 204 183 200 206 205 220 256 260 267 258 222 207 203 231 268 292 305 304 301 299 298 293 288 284 282 282 281 279 273
133 134 259 67 99 178 30 132 68 102 134 163 222 257 220 186 203 220 20 37 117 141 141 142 137 133 130 308 314 313 309 306 304 302 300 297 293 290 288 286 284 283 280 277
354 122 182 213 279 348 138 177 146 155 222 205 156 257 24 143 136 116 110 109 124 122 110 109 111 12 314 314 312 310 310 311 310 309 307 304 301 298 294 290 287 282 277 275
184 75 72 344 3 18 119 72 128 125 86 180 168 247 231 214 113 129 128 122 120 103 89 33 341 332 330 325 320 317 316 315 314 313 311 307 304 302 299 298 298 297 294 284
89 125 163 187 187 149 181 173 138 114 103 232 222 247 280 322 125 132 118 132 136 130 340 336 336 335 329 324 320 317 314 316 317 314 311 310 312 309 308 306 304 305 303 298
84 173 166 216 194 199 233 253 228 183 193 191 236 207 279 170 153 129 119 111 64 349 341 342 335 328 322 318 316 318 319 318 314 312 314 315 313 311 311 311 308 308 305 300
1 178 130 270 308 230 257 250 239 241 222 211 223 257 163 121 117 104 89 31 357 343 335 332 326 321 320 320 319 318 317 314 316 316 316 314 313 313 316 315 311 310 304 308
79 121 94 248 353 321 272 238 233 231 228 208 217 203 158 160 147 152 94 29 350 336 332 327 323 321 320 318 318 317 316 316 316 320 320 317 317 316 318 320 318 315 315 316
132 108 79 291 342 236 241 292 242 215 4 228 105 116 137 148 170 111 78 6 337 331 327 323 320 318 318 318 320 316 315 317 319 321 321 321 318 315 314 315 314 312 311 307
150 113 121 195 233 315 314 2 168 145 8 51 114 128 122 128 169 213 15 337 330 326 322 319 318 318 319 321 321 315 314 315 319 320 317 316 312 313 316 315 313 310 308 301
177 172 131 179 229 227 237 330 303 152 187 180 133 125 144 125 98 261 310 323 324 323 322 322 322 322 323 326 322 317 315 320 325 318 317 315 316 315 316 317 311 312 305 295
143 157 200 188 243 283 245 316 331 101 245 145 146 148 143 141 192 294 315 322 326 326 327 329 328 328 331 329 323 318 319 324 319 319 314 321 324 322 318 321 315 311 300 292
160 167 176 183 197 262 99 305 177 183 123 134 127 127 138 158 258 328 334 334 333 334 336 337 333 334 334 333 328 320 319 320 320 315 320 327 327 327 327 318 315 312 304 289
188 181 179 175 215 239 21 117 140 164 144 145 136 139 130 77 358 347 344 341 341 341 342 342 340 336 338 335 330 321 322 322 316 320 325 326 328 331 327 328 324 320 311 268
193 151 211 150 254 185 168 151 128 134 131 138 122 108 46 19 360 353 349 349 349 349 344 344 344 341 338 337 333 328 327 320 313 321 324 328 333 333 334 328 331 326 319 295
223 136 180 258 183 117 204 199 193 179 169 145 121 85 37 10 10 5 2 5 4 2 357 355 349 347 345 341 338 335 328 319 319 329 326 330 339 334 333 329 333 328 310 295
198 192 180 224 205 178 190 182 173 176 162 150 125 87 31 21 29 21 17 7 2 2 3 359 358 356 353 349 344 339 334 326 323 326 323 330 343 340 327 330 335 342 321 289
Wind_Speed_850mb
9 5 13 18 16 8 5 6 11 11 11 7 14 17 26 20 13 17 27 30 40 50 36 36 31 22 29 35 39 42 38 35 34 29 25 24 27 33 35 36 42 46 42 46
6 10 18 9 12 11 10 6 13 15 10 8 15 22 16 15 14 20 28 24 35 27 21 23 21 18 24 30 29 32 34 35 32 28 26 20 17 16 17 19 25 31 34 37
11 16 7 9 12 10 11 8 10 14 5 3 4 13 7 6 2 1 15 17 19 24 31 40 37 38 40 38 36 35 31 26 19 13 9 11 17 24 31 36 39 41 44 47
10 20 19 13 11 12 12 13 12 12 6 4 5 4 10 6 6 3 18 22 37 56 55 54 52 49 42 40 30 20 14 6 3 12 20 28 34 41 45 48 49 51 54 57
12 6 7 5 9 12 20 11 8 5 9 8 10 9 14 8 3 4 6 32 53 54 53 53 46 38 30 20 12 5 3 10 20 28 32 34 34 39 41 45 49 51 53 54
14 13 8 12 8 5 15 10 14 10 7 5 7 9 10 7 9 3 1 39 45 43 44 39 33 26 21 12 6 5 8 12 27 29 33 39 45 49 51 51 56 57 58 58
4 8 7 9 4 9 12 12 4 5 6 9 1 6 14 7 8 18 17 31 40 42 39 31 23 16 13 7 8 9 16 24 28 33 37 41 47 51 54 57 58 61 63 65
8 6 3 1 6 8 4 11 11 12 9 7 7 8 9 10 13 41 45 42 37 32 25 20 12 12 15 12 18 22 23 27 31 35 37 42 48 54 56 56 56 58 60 64
8 6 4 7 3 8 4 6 6 12 4 6 6 3 10 11 11 25 38 34 34 32 29 17 12 13 19 21 19 20 22 24 30 34 39 42 45 49 54 59 61 61 61 60
9 5 4 6 3 10 7 10 6 6 8 6 6 6 10 12 16 11 10 29 24 16 16 13 13 11 12 8 7 10 12 18 25 32 40 46 50 55 60 63 64 64 64 65
8 8 6 0 1 8 3 5 10 9 6 9 2 9 11 16 7 8 11 12 4 23 27 24 21 15 7 1 9 19 30 40 51 60 67 74 78 83 88 90 91 90 82 72
1 8 6 11 5 5 6 5 7 9 8 4 8 8 4 15 5 11 26 27 27 27 23 18 10 3 10 20 30 39 49 59 70 80 89 96 101 104 105 104 104 104 108 102
9 3 4 13 9 8 4 6 6 8 5 14 11 10 11 11 12 33 39 25 23 13 9 7 12 21 30 38 47 55 63 73 82 90 92 91 86 81 78 76 75 78 79 85
10 5 10 13 8 7 4 5 6 8 6 5 10 13 11 7 15 13 23 24 20 5 9 17 24 33 43 51 59 65 75 86 91 88 81 78 70 63 65 65 64 65 68 70
7 6 3 5 1 3 5 9 9 11 13 12 9 12 11 9 15 16 18 10 5 8 15 25 36 44 51 58 65 76 88 89 83 76 72 66 60 57 56 57 57 61 63 71
8 4 4 3 1 7 9 14 18 15 18 24 21 14 8 13 24 19 9 7 9 12 21 33 42 52 60 68 79 87 85 78 71 69 68 64 57 59 57 54 51 57 65 68
5 7 5 7 5 8 9 25 23 19 20 17 18 15 16 8 13 15 4 5 11 25 37 47 51 59 71 79 83 79 72 68 62 63 65 59 56 56 54 50 54 61 65 66
9 8 4 4 6 5 10 7 10 11 9 20 11 13 12 10 16 13 7 8 22 36 42 50 60 71 75 78 70 64 64 59 55 60 61 61 57 48 51 60 68 68 68 65
6 8 5 4 5 12 15 1 8 7 6 7 15 12 13 9 23 9 13 19 30 38 50 60 65 70 70 65 62 62 59 52 54 56 61 60 48 53 60 69 69 65 72 66
13 5 7 5 5 9 8 6 9 3 5 13 18 8 2 12 2 7 18 26 39 49 57 62 65 64 61 61 57 55 53 52 55 57 60 45 50 59 69 72 73 71 70 73
8 4 12 6 6 12 10 8 7 8 8 18 20 17 11 3 5 6 20 34 44 52 57 59 59 58 60 54 51 51 50 50 56 54 41 47 56 70 72 76 69 72 77 80
10 11 6 9 7 12 2 6 4 10 12 21 17 14 12 9 3 16 30 43 51 57 61 60 59 59 56 50 50 51 49 50 49 38 45 54 61 68 67 65 73 69 66 61
6 10 8 13 9 7 6 14 13 16 25 18 19 13 11 4 16 29 41 46 52 57 60 58 59 62 58 51 48 50 49 47 38 39 47 53 63 57 58 61 63 61 48 35
7 9 3 4 2 9 15 21 19 17 18 16 16 9 7 14 22 30 37 44 51 53 55 56 59 59 57 48 44 42 42 40 40 43 50 56 65 52 56 56 54 47 34 34
4 8 9 7 3 6 9 19 22 19 23 24 16 9 12 17 23 30 34 41 46 53 53 53 54 56 55 50 44 38 38 38 42 42 50 57 59 45 49 51 46 43 30 28
11 11 8 9 16 10 17 31 27 26 29 20 9 8 12 18 23 29 35 40 46 53 59 57 56 57 57 52 46 41 38 36 39 39 46 56 55 47 45 46 43 37 28 21
Wind_Direction_850mb
201 157 222 223 207 198 237 234 257 247 240 174 225 216 244 211 211 217 248 245 222 215 213 227 239 219 178 166 165 170 178 186 194 198 210 223 233 250 260 264 266 273 282 285
356 246 246 222 253 218 233 267 288 288 272 118 292 251 236 156 199 220 232 228 229 206 209 220 216 204 203 194 178 166 173 177 182 192 202 214 231 250 265 267 277 287 285 284
179 246 337 205 275 299 279 223 244 214 12 214 74 350 31 148 118 276 256 261 243 177 159 156 160 162 159 159 160 159 157 161 171 192 228 281 298 300 299 298 298 293 290 291
229 265 241 263 251 181 270 272 201 178 118 205 54 273 323 45 350 90 226 197 161 149 148 147 147 147 149 142 139 137 135 132 15 339 328 319 311 307 305 304 303 301 299 296
241 261 327 277 221 168 229 188 132 75 89 81 347 83 270 339 314 323 168 163 151 148 148 146 141 135 136 133 132 129 9 353 345 336 324 312 308 311 305 299 298 301 300 300
231 258 231 219 269 237 147 87 50 47 75 55 254 125 287 235 192 138 292 149 146 140 136 132 136 140 140 147 194 264 310 324 321 317 315 310 307 306 302 303 304 303 303 304
275 243 261 216 233 14 71 70 1 359 16 204 18 66 233 294 181 168 167 156 148 145 150 154 156 165 179 208 259 283 301 311 305 302 300 299 297 295 294 298 296 295 294 297
164 309 184 244 153 161 80 147 155 199 186 235 269 224 253 305 144 154 157 158 162 167 175 184 197 206 205 222 237 241 249 256 261 262 265 270 275 274 271 270 269 274 282 291
171 254 354 49 93 123 166 69 175 98 30 87 241 252 345 34 87 148 168 175 189 199 204 214 231 237 228 240 242 240 257 261 267 276 280 282 282 278 273 270 273 277 273 274
195 153 326 319 101 22 130 166 62 14 145 218 279 250 188 204 183 200 206 205 220 256 260 267 258 222 207 203 231 268 292 305 304 301 299 298 293 288 284 282 282 281 279 273
133 134 259 67 99 178 30 132 68 102 134 163 222 257 220 186 203 220 20 37 117 141 141 142 137 133 130 308 314 313 309 306 304 302 300 297 293 290 288 286 284 283 280 277
354 122 182 213 279 348 138 177 146 155 222 205 156 257 24 143 136 116 110 109 124 122 110 109 111 12 314 314 312 310 310 311 310 309 307 304 301 298 294 290 287 282 277 275
184 75 72 344 3 18 119 72 128 125 86 180 168 247 231 214 113 129 128 122 120 103 89 33 341 332 330 325 320 317 316 315 314 313 311 307 304 302 299 298 298 297 294 284
89 125 163 187 187 149 181 173 138 114 103 232 222 247 280 322 125 132 118 132 136 130 340 336 336 335 329 324 320 317 314 316 317 314 311 310 312 309 308 306 304 305 303 298
84 173 166 216 194 199 233 253 228 183 193 191 236 207 279 170 153 129 119 111 64 349 341 342 335 328 322 318 316 318 319 318 314 312 314 315 313 311 311 311 308 308 305 300
1 178 130 270 308 230 257 250 239 241 222 211 223 257 163 121 117 104 89 31 357 343 335 332 326 321 320 320 319 318 317 314 316 316 316 314 313 313 316 315 311 310 304 308
79 121 94 248 353 321 272 238 233 231 228 208 217 203 158 160 147 152 94 29 350 336 332 327 323 321 320 318 318 317 316 316 316 320 320 317 317 316 318 320 318 315 315 316
132 108 79 291 342 236 241 292 242 215 4 228 105 116 137 148 170 111 78 6 337 331 327 323 320 318 318 318 320 316 315 317 319 321 321 321 318 315 314 315 314 312 311 307
150 113 121 195 233 315 314 2 168 145 8 51 114 128 122 128 169 213 15 337 330 326 322 319 318 318 319 321 321 315 314 315 319 320 317 316 312 313 316 315 313 310 308 301
177 172 131 179 229 227 237 330 303 152 187 180 133 125 144 125 98 261 310 323 324 323 322 322 322 322 323 326 322 317 315 320 325 318 317 315 316 315 316 317 311 312 305 295
143 157 200 188 243 283 245 316 331 101 245 145 146 148 143 141 192 294 315 322 326 326 327 329 328 328 331 329 323 318 319 324 319 319 314 321 324 322 318 321 315 311 300 292
160 167 176 183 197 262 99 305 177 183 123 134 127 127 138 158 258 328 334 334 333 334 336 337 333 334 334 333 328 320 319 320 320 315 320 327 327 327 327 318 315 312 304 289
188 181 179 175 215 239 21 117 140 164 144 145 136 139 130 77 358 347 344 341 341 341 342 342 340 336 338 335 330 321 322 322 316 320 325 326 328 331 327 328 324 320 311 268
193 151 211 150 254 185 168 151 128 134 131 138 122 108 46 19 360 353 349 349 349 349 344 344 344 341 338 337 333 328 327 320 313 321 324 328 333 333 334 328 331 326 319 295
223 136 180 258 183 117 204 199 193 179 169 145 121 85 37 10 10 5 2 5 4 2 357 355 349 347 345 341 338 335 328 319 319 329 326 330 339 334 333 329 333 328 310 295
198 192 180 224 205 178 190 182 173 176 162 150 125 87 31 21 29 21 17 7 2 2 3 359 358 356 353 349 344 339 334 326 323 326 323 330 343 340 327 330 335 342 321 289